Bismarck, ND

5:35 AM CST on February 24, 2017 (GMT -0600)
Bismarck Municipal

Weather History for KBIS - May, 2013

Change the Weather History Date:

Friday, May 24, 2013

  Actual Average Record
Temperature  
Mean Temperature 57 °F 58 °F  
Max Temperature 64 °F 71 °F 96 °F (1926)
Min Temperature 49 °F 46 °F 24 °F (2002)
Degree Days  
Heating Degree Days 8 8  
Month to date heating degree days 295 264  
Since 1 July heating degree days 8818 8419  
Cooling Degree Days 0 1  
Month to date cooling degree days 10 6  
Year to date cooling degree days 10 7  
Growing Degree Days 6 (Base 50)    
Moisture  
Dew Point 46 °F    
Average Humidity 70    
Maximum Humidity 86    
Minimum Humidity 54    
Precipitation  
Precipitation 0.00 in 0.09 in 1.94 in (1978)
Month to date precipitation 4.34 1.78  
Year to date precipitation 7.57 4.85  
Snow  
Snow 0.00 in 0.00 in T in (2010)
Month to date snowfall 0.0 0.4  
Since 1 July snowfall 57.3 51.2  
Snow Depth 0.00 in    
Sea Level Pressure  
Sea Level Pressure 30.04 in    
Wind  
Wind Speed 17 mph (SE)    
Max Wind Speed 29 mph    
Max Gust Speed 35 mph    
Visibility 10 miles    
Events      
T = Trace of Precipitation, MM = Missing Value Source: NWS Daily Summary

Daily Weather History Graph

Daily Weather History Graph

Search for Another Location

Airport or City:

Trip Planner

Search our weather history database for the weather conditions in past years. The results will help you decide how hot, cold, wet, or windy it might be!

Date:

Astronomy

May. 24, 2013 Rise Set
Actual Time 5:58 AM CDT 9:21 PM CDT
Civil Twilight 5:21 AM CDT 9:59 PM CDT
Nautical Twilight 4:32 AM CDT 10:48 PM CDT
Astronomical Twilight 3:29 AM CDT 11:51 PM CDT
Moon 9:04 PM CDT 5:35 AM CDT
Length of Visible Light 16h 37m
Length of Day
15h 23m
Full, 100% of the Moon is Illuminated
May 24
Full
May 24
Full
May 31
Last Quarter
Jun 8
New
Jun 16
First Quarter

Hourly Weather History & Observations

Time (CDT) Temp. Dew Point Humidity Pressure Visibility Wind Dir Wind Speed Gust Speed Precip Events Conditions
12:52 AM 55.0 °F 44.1 °F 67% 30.16 in 10.0 mi SE 17.3 mph - N/A   Clear
1:52 AM 53.1 °F 44.1 °F 71% 30.15 in 10.0 mi ESE 13.8 mph - N/A   Clear
2:52 AM 52.0 °F 43.0 °F 71% 30.13 in 10.0 mi ESE 13.8 mph - N/A   Clear
3:52 AM 51.1 °F 39.0 °F 63% 30.12 in 10.0 mi SE 15.0 mph - N/A   Clear
4:52 AM 50.0 °F 37.0 °F 61% 30.11 in 10.0 mi SE 12.7 mph - N/A   Clear
5:52 AM 51.1 °F 36.0 °F 56% 30.09 in 10.0 mi SE 16.1 mph - N/A   Clear
6:52 AM 51.1 °F 37.0 °F 59% 30.08 in 10.0 mi SSE 13.8 mph 21.9 mph N/A   Clear
7:52 AM 54.0 °F 39.0 °F 57% 30.07 in 10.0 mi SSE 24.2 mph 31.1 mph N/A   Overcast
8:52 AM 54.0 °F 39.9 °F 59% 30.05 in 10.0 mi SE 23.0 mph 31.1 mph N/A   Overcast
9:52 AM 55.9 °F 42.1 °F 60% 30.03 in 10.0 mi SE 24.2 mph 29.9 mph N/A   Overcast
10:52 AM 55.9 °F 43.0 °F 62% 30.02 in 10.0 mi SE 25.3 mph 33.4 mph N/A   Overcast
11:52 AM 55.9 °F 45.0 °F 67% 30.01 in 10.0 mi SE 25.3 mph 33.4 mph N/A   Overcast
12:21 PM 55.9 °F 45.0 °F 67% 30.00 in 10.0 mi SE 24.2 mph 32.2 mph N/A   Overcast
12:31 PM 55.9 °F 46.0 °F 69% 30.00 in 10.0 mi SE 24.2 mph 32.2 mph N/A   Overcast
12:52 PM 55.9 °F 46.0 °F 69% 30.01 in 10.0 mi SSE 24.2 mph 35.7 mph N/A   Overcast
1:52 PM 55.9 °F 46.9 °F 72% 30.00 in 10.0 mi SSE 20.7 mph 28.8 mph N/A   Overcast
2:52 PM 57.9 °F 48.9 °F 72% 29.99 in 10.0 mi SSE 20.7 mph 25.3 mph N/A   Overcast
3:52 PM 60.1 °F 51.1 °F 72% 29.99 in 10.0 mi SE 16.1 mph - N/A   Overcast
4:52 PM 62.1 °F 52.0 °F 70% 29.98 in 10.0 mi SSE 18.4 mph 27.6 mph N/A   Overcast
5:52 PM 61.0 °F 52.0 °F 72% 29.98 in 10.0 mi SE 16.1 mph - N/A   Overcast
6:52 PM 63.0 °F 52.0 °F 67% 29.97 in 10.0 mi SE 19.6 mph - N/A   Scattered Clouds
7:52 PM 62.1 °F 52.0 °F 70% 29.97 in 10.0 mi ESE 15.0 mph - N/A   Partly Cloudy
8:52 PM 59.0 °F 52.0 °F 78% 29.99 in 10.0 mi SE 11.5 mph - N/A   Partly Cloudy
9:52 PM 57.0 °F 52.0 °F 83% 30.01 in 10.0 mi ENE 6.9 mph - N/A   Mostly Cloudy
10:52 PM 55.9 °F 51.1 °F 84% 30.03 in 10.0 mi East 9.2 mph - N/A   Mostly Cloudy
11:52 PM 55.0 °F 51.1 °F 86% 30.05 in 10.0 mi East 6.9 mph - N/A   Mostly Cloudy